Weather Roundup
Issued by NWS

Home | Current Version | Previous Version | Graphics & Text | Print | Product List | Glossary Off
Versions: 1 2 3 4 5 6 7 8 9 10 11 12 13 14 15 16 17 18 19 20 21 22 23 24 25 26 27 28 29 30 31 32 33 34 35 36 37 38 39 40 41 42 43 44 45 46 47 48 49 50

000
NZUS93 KARX 180459
HRRWXR

CURRENT HOURLY OBSERVATIONS ACROSS
MUCH OF THE UPPER MISSISSIPPI VALLEY
NATIONAL WEATHER SERVICE LA CROSSE WI
1100 PM CST FRI NOV 17 2017


...SOUTHEAST MINNESOTA...


CITY           SKY/WX    TMP DP  RH WIND       PRES   REMARKS
ROCHESTER      CLOUDY    36  36 100 N12       29.64R WCI  28
ROCHESTER/MAYO CLOUDY    36  37 100 NW8       29.64R WCI  30
WINONA         CLOUDY    36  36 100 CALM      29.61F FOG
AUSTIN         CLOUDY    36  36 100 N9        29.60F FOG     WCI  29
ALBERT LEA     CLOUDY    36  36 100 N12       29.61F FOG     WCI  27
DODGE CENTER   CLOUDY    36  36 100 N8        29.64R FOG     WCI  29
PRESTON        CLOUDY    36  35  96 N10       29.63R FOG     WCI  28
OWATONNA       CLOUDY    37  36  93 N7        29.64F FOG     WCI  32
FARIBAULT      CLOUDY    37  36  93 N5        29.64F FOG     WCI  34
$$

...ELSEWHERE IN MINNESOTA...


CITY           SKY/WX    TMP DP  RH WIND       PRES   REMARKS
MINNEAPOLIS    CLOUDY    37  36  96 N8        29.65F WCI  31
INTNL FALLS    CLOUDY    22  16  78 NW7       29.71S HAZE    WCI  13
DULUTH         CLOUDY    32  31  96 NW7       29.63S WCI  26
RED WING       MOCLDY    37  34  87 CALM      29.64R FOG
REDWOOD FALLS  CLOUDY    36  31  82 NW10      29.71R WCI  28
MANKATO        CLOUDY    36  34  92 N8        29.66S FOG     WCI  30
WORTHINGTON    CLOUDY    34  32  92 N14       29.68R WCI  25
FAIRMONT       CLOUDY    37  35  92 N15       29.64R WCI  28
$$

...SOUTHWEST WISCONSIN...


CITY           SKY/WX    TMP DP  RH WIND       PRES   REMARKS
LA CROSSE      LGT RAIN  39  38  96 N7        29.60F FOG     WCI  34
PRAIRIE DU CHI CLOUDY    38  37  97 CALM      29.60S FOG
BOSCOBEL       CLOUDY    39  38  96 CALM      29.61R FOG
LONE ROCK      CLOUDY    39  39 100 CALM      29.59F FOG
PLATTEVILLE    CLOUDY    40  40 100 CALM      29.57F
FORT MC COY    LGT RAIN  35  35 100 CALM      29.63F
CAMP DOUGLAS   CLOUDY    36  36 100 N6        29.59F FOG     WCI  32
MAUSTON-NEW LI FOG       37  37  99 CALM      29.61S VSB 1
VIROQUA        CLOUDY    36  36 100 N3        29.57F VSB 1
WIS DELLS      FOG       37  36  98 NW3       29.61R VSB 3/4
$$

...ELSEWHERE IN WISCONSIN...


CITY           SKY/WX    TMP DP  RH WIND       PRES   REMARKS
MILWAUKEE      CLOUDY    43  42  97 CALM      29.59F FOG
MADISON        CLOUDY    39  38  96 NW3       29.59S FOG
GREEN BAY      CLOUDY    38  38 100 W3        29.60S FOG
EAU CLAIRE     CLOUDY    36  35  96 N5        29.63F FOG     WCI  32
BLACK RVR FLS  FOG       37  37 100 CALM      29.62F VSB 1/2
MEDFORD        FOG       32  32  99 N5        29.60F VSB 1/2 WCI  28
WAUSAU         CLOUDY    34  33  96 N3        29.60R FOG
WIS RAPIDS     CLOUDY    36  35  96 CALM      29.62S FOG
MARSHFIELD     FOG       34  33  96 NW5       29.60S VSB 3/4 WCI  30
RICE LAKE      CLOUDY    34  34 100 N3        29.65S FOG
$$

...NORTHEAST IOWA...


CITY           SKY/WX    TMP DP  RH WIND       PRES   REMARKS
WATERLOO       FOG       39  39 100 NE6       29.57F VSB 3/4 WCI  35
DUBUQUE        FOG       39  39 100 NE7       29.56F VSB 1/4 WCI  34
DECORAH        FOG       37  37 100 CALM      29.59R VSB 1
MASON CITY     CLOUDY    38  37  97 N14       29.61F WCI  30
CHARLES CITY   FOG       39  39 100 N9        29.60F VSB 1/2 WCI  33
OELWEIN        FOG       39  39 100 NE8       29.57F VSB 1/2 WCI  34
$$

...ELSEWHERE IN IOWA...


CITY           SKY/WX    TMP DP  RH WIND       PRES   REMARKS
DES MOINES     FOG       47  47 100 N7        29.54F VSB 3/4
IOWA CITY      CLOUDY    47  44  90 N7        29.57S FOG
FORT DODGE     LGT RAIN  41  40  96 NE13      29.59F
MARSHALLTOWN   FOG       42  41  96 NE9       29.54F VSB 1
CEDAR RAPIDS   FOG       43  43 100 N8        29.55F VSB 1
$$

...NORTHERN ILLINOIS...


CITY           SKY/WX    TMP DP  RH WIND       PRES   REMARKS
CHICAGO-OHARE  LGT RAIN  47  44  90 SW10      29.57F FOG
CHICAGO-MIDWAY LGT RAIN  48  45  89 SW14      29.58F FOG
MOLINE         CLOUDY    52  47  83 CALM      29.53F
ROCKFORD       DRIZZLE   43  42  97 N5        29.59F FOG
PEORIA         CLOUDY    52  48  86 S12       29.56F
$$

NOTE: "FAIR" INDICATES FEW OR NO CLOUDS BELOW 12,000 FEET WITH NO
SIGNIFICANT WEATHER AND/OR OBSTRUCTIONS TO VISIBILITY. WIND
SPEEDS ARE IN MILES-PER-HOUR.




USA.gov is the U.S. government's official web portal to all federal, state and local government web resources and services.